Location: Laura�t
(43.9341°N, 0.2497°E)
Time: 23:40:40
(UTC+00:00)

CSL-04 Rocket - Pass Details

Date: 03 March 2021
Orbit: 805 x 861 km, 98.9° (Epoch: 17 April)

Event Time Altitude Azimuth Distance (km) Brightness Sun altitude
Rises 18:21:32 0° 141° (SE) 3,425 6.5 -6.4°
Reaches altitude 10° 18:24:02 10° 134° (SE) 2,491 5.8 -6.9°
Maximum altitude 18:29:08 40° 67° (ENE) 1,250 4.2 -7.8°
Drops below altitude 10° 18:34:14 10° 360° (N) 2,486 6.2 -8.7°
Sets 18:36:43 0° 353° (N) 3,418 7.0 -9.2°
